EW7350 Weather Reports


time (UTC)temp
C
wind
direction
speed
KPH
gust
KPH
rain 1hr
cm
rain 24hr
cm
rain mn
cm
humidity
%
barometer
mb
20260903010032 27 309 0.0 0.0 0.00 0.00 0.00 86 1011.9
20260903004542 27 309 0.0 0.0 0.00 0.00 0.00 85 1011.9
20260903003038 28 309 0.0 0.0 0.00 0.00 0.00 84 1011.7
20260903001530 28 309 0.0 0.0 0.00 0.00 0.00 83 1011.8
20260903000030 29 309 0.0 0.0 0.00 0.00 0.00 82 1011.9
20260902234530 29 309 0.0 0.0 0.00 0.00 0.00 80 1011.8
20260902233029 30 309 0.0 0.0 0.00 0.00 0.00 79 1011.9
20260902231527 30 309 0.0 0.0 0.00 0.00 0.00 78 1011.9
20260902230026 31 309 0.0 3.2 0.00 0.00 0.00 76 1012.0
20260902224526 31 310 0.0 1.6 0.00 0.00 0.00 75 1012.0
20260902223029 31 311 0.0 1.6 0.00 0.00 0.00 73 1012.0
20260902221525 32 311 0.0 1.6 0.00 0.00 0.00 70 1012.0
20260902220022 33 318 0.0 3.2 0.00 0.00 0.00 67 1012.0
20260902214527 33 286 0.0 4.8 0.00 0.00 0.00 65 1012.1
20260902213026 34 289 0.0 6.4 0.00 0.00 0.00 64 1012.1
20260902211518 34 293 1.6 6.4 0.00 0.00 0.00 63 1012.1
20260902210025 34 286 3.2 6.4 0.00 0.00 0.00 64 1012.2
20260902204518 34 292 0.0 4.8 0.00 0.00 0.00 65 1012.2
20260902203020 34 292 0.0 8.0 0.00 0.00 0.00 66 1012.3
20260902201516 34 9 0.0 4.8 0.00 0.00 0.00 65 1012.5
20260902200013 34 279 1.6 11.3 0.00 0.00 0.00 64 1012.7
20260902194507 34 283 0.0 9.7 0.00 0.00 0.00 63 1012.6
20260902193003 34 302 0.0 3.2 0.00 0.00 0.00 64 1012.8
20260902191601 33 257 0.0 6.4 0.00 0.00 0.00 64 1012.9
20260902190059 33 74 0.0 3.2 0.00 0.00 0.00 65 1013.0
20260902184601 33 271 0.0 3.2 0.00 0.00 0.00 66 1013.0
20260902183107 33 265 0.0 4.8 0.00 0.00 0.00 67 1013.0
20260902181550 33 210 0.0 4.8 0.00 0.00 0.00 69 1013.2
20260902180047 33 286 0.0 3.2 0.00 0.00 0.00 67 1013.4
20260902174544 33 282 0.0 1.6 0.00 0.00 0.00 67 1013.5
20260902173040 32 309 0.0 1.6 0.00 0.00 0.00 69 1013.7
20260902171540 32 325 0.0 3.2 0.00 0.00 0.00 70 1013.9
20260902170044 32 172 0.0 4.8 0.00 0.00 0.00 71 1014.0
20260902164532 31 289 0.0 0.0 0.00 0.00 0.00 71 1014.1
20260902163029 31 279 0.0 1.6 0.00 0.00 0.00 73 1014.1
20260902161525 30 279 0.0 6.4 0.00 0.00 0.00 73 1014.3
20260902160022 30 288 1.6 8.0 0.00 0.00 0.00 77 1014.4
20260902154526 29 297 0.0 3.2 0.00 0.00 0.00 78 1014.4
20260902153022 28 288 0.0 6.4 0.00 0.00 0.00 79 1014.4
20260902151513 28 281 0.0 3.2 0.00 0.00 0.00 80 1014.5
20260902150010 27 286 0.0 8.0 0.00 0.00 0.00 82 1014.5
20260902144513 27 286 0.0 14.5 0.00 0.03 0.00 84 1014.4
20260902143005 26 284 0.0 0.0 0.00 0.03 0.00 85 1014.4
20260902141600 26 275 0.0 1.6 0.00 0.03 0.00 86 1014.4
20260902140056 25 271 0.0 3.2 0.00 0.03 0.00 87 1014.3
20260902134558 25 298 0.0 0.0 0.00 0.05 0.00 86 1014.4
20260902133102 24 298 0.0 1.6 0.00 0.05 0.00 84 1014.5
20260902131559 23 299 0.0 0.0 0.00 0.05 0.00 82 1014.6
20260902130051 23 300 0.0 0.0 0.00 0.05 0.00 81 1014.6
20260902124550 23 300 0.0 0.0 0.00 0.08 0.00 81 1014.7
20260902123106 22 300 0.0 1.6 0.00 0.08 0.00 81 1014.7
20260902121557 22 300 0.0 0.0 0.00 0.08 0.00 81 1014.8
20260902120104 22 300 0.0 0.0 0.00 0.08 0.00 81 1014.7
20260902114548 22 300 0.0 0.0 0.00 0.10 0.00 81 1014.7
20260902113047 22 300 0.0 0.0 0.00 0.10 0.00 81 1014.6
20260902111554 22 300 0.0 0.0 0.00 0.10 0.00 82 1014.4
20260902110046 22 300 0.0 0.0 0.00 0.10 0.00 82 1014.4
20260902104545 22 300 0.0 0.0 0.00 0.10 0.00 82 1014.3
20260902103044 22 300 0.0 0.0 0.00 0.10 0.00 82 1014.2
20260902101539 22 300 0.0 0.0 0.00 0.10 0.00 82 1014.0
20260902100039 22 300 0.0 0.0 0.00 0.10 0.00 82 1014.0
20260902094537 22 300 0.0 0.0 0.00 0.10 0.00 82 1013.9
20260902093035 22 300 0.0 0.0 0.00 0.10 0.00 82 1013.9
20260902091534 22 300 0.0 0.0 0.00 0.10 0.00 82 1013.8
20260902090034 22 300 0.0 8.0 0.00 0.10 0.00 82 1013.7
20260902084533 23 300 0.0 0.0 0.00 0.10 0.00 82 1013.7
20260902083031 23 300 0.0 0.0 0.00 0.10 0.00 83 1013.8
20260902081535 23 300 0.0 0.0 0.00 0.10 0.00 82 1013.9
20260902080030 23 300 0.0 1.6 0.00 0.10 0.00 83 1013.9
20260902074528 23 300 0.0 0.0 0.00 0.10 0.00 83 1013.9
20260902073027 23 300 0.0 0.0 0.00 0.10 0.00 83 1013.7
20260902071525 23 300 0.0 0.0 0.00 0.10 0.00 83 1013.7
20260902070023 23 300 0.0 0.0 0.00 0.10 0.00 83 1013.6
20260902064523 23 300 0.0 0.0 0.00 0.10 0.00 84 1013.6
20260902063033 23 300 0.0 0.0 0.00 0.10 0.00 84 1013.5
20260902061522 23 300 0.0 0.0 0.00 0.10 0.00 84 1013.7
20260902060017 24 300 0.0 0.0 0.00 0.10 0.00 84 1013.7
20260902054522 24 300 0.0 0.0 0.00 0.10 0.00 84 1013.8
20260902053014 24 300 0.0 0.0 0.00 0.10 0.00 84 1013.8
20260902051511 25 300 0.0 0.0 0.00 0.10 0.00 85 1013.8
20260902050031 25 300 0.0 0.0 0.00 0.10 0.00 84 1013.7
20260902044509 25 300 0.0 0.0 0.00 0.10 0.00 84 1013.7
20260902043022 25 300 0.0 0.0 0.00 0.10 0.00 84 1013.7
20260902041508 25 300 0.0 0.0 0.00 0.10 0.00 84 1013.6
20260902040006 25 300 0.0 0.0 0.00 0.10 0.00 84 1013.6
20260902034505 25 300 0.0 0.0 0.00 0.10 0.10 84 1013.6
20260902033003 25 300 0.0 0.0 0.00 0.10 0.10 84 1013.6
20260902031501 25 300 0.0 0.0 0.00 0.10 0.10 84 1013.6
20260902030100 25 300 0.0 0.0 0.00 0.10 0.10 84 1013.5
20260902024606 25 300 0.0 0.0 0.00 0.10 0.10 84 1013.5
20260902023104 25 300 0.0 0.0 0.00 0.10 0.10 84 1013.5
20260902021611 25 300 0.0 0.0 0.00 0.10 0.10 85 1013.5
20260902020112 26 300 0.0 0.0 0.00 0.10 0.10 86 1013.5
20260902014558 26 300 0.0 0.0 0.00 0.10 0.10 87 1013.4
20260902013057 26 300 0.0 0.0 0.00 0.10 0.10 87 1013.6
20260902011557 26 300 0.0 0.0 0.00 0.10 0.10 87 1013.4